Terminal Aerodrome Forecast
Issued by NWS Boston, MA

Home | Current Version | Previous Version | Text Only | Print | Product List | Glossary On
Versions: 1 2 3 4 5 6 7 8 9 10 11 12 13 14 15 16 17 18 19 20 21 22 23 24 25 26 27 28 29 30 31 32 33 34 35 36 37 38 39 40 41 42 43 44 45 46 47 48 49 50
495
FTUS41 KBOX 060919 AAC
TAFBDL
TAF AMD
KBDL 060919Z 0609/0712 VRB04KT P6SM SKC
     FM061700 20006KT P6SM SCT200
     FM062200 19007KT P6SM SCT150
     FM070600 VRB03KT P6SM FEW200=

USA.gov is the U.S. government's official web portal to all federal, state and local government web resources and services.